Location: Litvinovka
(48.6667°N, 34.3500°E)
Time: 19:12:21
(UTC+00:00)

ATLAS 2AS CENTAUR R/B - Pass Details

Date: 18 September 2020
Orbit: 939 x 1273 km, 63.7° (Epoch: 19 October)

Event Time Altitude Azimuth Distance (km) Brightness Sun altitude
Exits shadow 21:11:56 19° 275° (W) 2,623 4.8 -39.6°
Maximum altitude 21:17:01 39° 332° (NNW) 1,816 4.1 -39.7°
Drops below altitude 10° 21:24:11 10° 39° (NE) 3,180 5.6 -39.8°
Sets 21:27:09 0° 47° (NE) 4,105 6.2 -39.9°
